User: anonymous
Location: Unspecified
(42.0334°N, 93.6656°W)
Time: 03:07:01
(UTC-05:00)
Language:

Iridium 63 - Orbit

View from above orbital plane
View from above orbital plane
View from above satellite
View from above satellite

Ground track
Ground track

The orbit data is extracted from the following two-line orbital elements,

1 25286U 98021B   14292.50568529  .00000704  00000-0  24396-3 0   226
2 25286 086.3963 270.3350 0002341 099.5083 015.7162 14.34260249865741
Epoch (UTC): 19 October 2014 12:08:11
Eccentricity: 0.0002341
inclination: 86.3963°
perigee height: 776 km
apogee height: 779 km
right ascension of ascending node: 270.3350°
argument of perigee: 99.5083°
revolutions per day: 14.34260249
mean anomaly at epoch: 15.7162°
orbit number at epoch: 86574

The dashed part of the orbit path shows where the satellite is in the earth's shadow,  

DLR